www.pogodaiklimat.ru

Погода и климат >> Архив погоды >> Сенегал >> Тамбакунда


ПОГОДА в Тамбакунде

  • Прогноз погоды в Тамбакунде
  • Монитор погоды в Тамбакунде

АРХИВ ПОГОДЫ в Тамбакунде

Время (UTC), дата Ветер
(напр.,м/с)
 
Видим.   Явления Облачность Т
(С)
Тd
(С)
f
(%)
Тe
(С)
Тes
(С)
Комфортность P
(гПа)
Po
(гПа)
Тmin
(С)
Tmax
(С)
R
(мм)
R24
(мм)
S
(см)
12 18.06 Ю 3 10 км {гроза, дождь} 9/0
[Ac cast Ci sp]
+32.5 +24.8 64 +46 +57 опасность
перегрева
1012.9 1007.3 13
18 18.06 З 2 10 км 8/5 400 м
[Cu Sc Ac As]
+38.4 +27.8 55 +58 +58 опасность
перегрева
1010.5 1004.9 +39.1
21 18.06 Ю 3 10 км зарница 8/5 400 м
[Cb calv Ac As]
+33.7 +26.1 65 +50 +50 опасность
перегрева
1011.5 1005.8
00 19.06 ЮЗ 3 10 км в посл. час гроза 6/0
[Ci sp]
+30.0 +24.9 74 +43 +43 опасность
перегрева
1013.1 1007.4
03 19.06 Ю 4 10 км 4/0
[Ci sp]
+28.4 +20.3 62 +35 +35 очень
душно
1012.9 1007.3
06 19.06 СЗ 1 10 км гроза без осадков 8/1 800 м
[Cb cap Ac As]
+27.4 +22.9 76 +36 +36 очень
душно
1014.1 1008.4 +27.0 13
09 19.06 ЮЗ 3 10 км {гроза} 4/1 400 м
[Sc diur, vesp Ci sp]
+30.6 +24.4 70 +43 +48 опасность
перегрева
1014.5 1008.9
15 19.06 ЮЗ 2 10 км ясно +39.0 +26.0 48 +54 +70 опасность
перегрева
1011.6 1006.0
21 19.06 Ю 4 10 км 1/0
[Ac trans]
+36.6 +25.9 54 +52 +52 опасность
перегрева
1010.9 1005.3
00 20.06 ЮЗ 5 10 км 6/0
[Ac As Ci sp]
+35.7 +25.3 55 +50 +50 опасность
перегрева
1013.0 1007.4
03 20.06 ЮЗ 4 10 км 4/0
[Ci sp]
+31.3 +24.8 68 +44 +44 опасность
перегрева
1013.1 1007.5
12 20.06 ЮЗ 5 10 км 3/0
[Ci sp]
+36.4 +26.3 56 +52 +62 опасность
перегрева
1011.7 1006.2
18 20.06 СЗ 2 10 км 4/0
[Ci sp]
+40.4 +26.3 45 +55 +57 опасность
перегрева
1009.8 1003.5 +41.8
21 20.06 ЮЗ 2 10 км 4/0
[Ci sp]
+37.0 +25.6 52 +51 +51 опасность
перегрева
1010.5 1004.9
00 21.06 Ю 5 10 км 4/0
[Ci sp]
+34.2 +26.8 65 +51 +51 опасность
перегрева
1010.8 1005.2
03 21.06 ЮЗ 4 10 км ясно +31.5 +22.9 60 +41 +41 опасность
перегрева
1011.1 1005.6
09 21.06 Ю 7 10 км 4/0
[Ci fib]
+30.0 +24.0 70 +41 +43 опасность
перегрева
1013.5 1007.9
12 21.06 ЮЗ 6 10 км 4/0
[Ci sp]
+35.8 +25.1 54 +49 +56 опасность
перегрева
1013.0 1007.5
15 21.06 Ю 6 10 км 4/0
[Ci sp]
+39.5 +27.4 51 +58 +63 опасность
перегрева
1010.5 1005.0
18 21.06 Ю 2 10 км 3/0
[Ci sp]
+40.5 +27.0 47 +57 +59 опасность
перегрева
1009.8 1004.2 +40.5
00 22.06 Ю 8 10 км зарница 4/1 800 м
[Cb calv Ci sp]
+33.6 +25.3 62 +48 +48 опасность
перегрева
1013.3 1007.8
12 22.06 ЮЗ 5 10 км 4/0
[Ci fib]
+35.4 +25.1 55 +49 +58 опасность
перегрева
1014.1 1008.5
18 22.06 З 4 10 км 8/1 450 м
[Cu hum Ac trans Ci sp]
+39.5 +27.6 51 +58 +59 опасность
перегрева
1010.0 1004.5 +41.4
15 23.06 З 4 10 км 6/0
[Ac trans Ci sp]
+38.3 +27.4 54 +57 +64 опасность
перегрева
1010.6 1005.0
18 23.06 ЮЗ 3 10 км 8/1 400 м
[Sc diur, vesp Ac trans]
+38.4 +27.1 53 +56 +57 опасность
перегрева
1009.4 1003.8 +39.4
03 24.06 ЮЗ 4 10 км ясно +30.5 +23.8 67 +42 +42 опасность
перегрева
1011.6 1006.1
06 24.06 З 3 10 км 9/0
[Ac und Ci sp]
+29.0 +23.2 71 +39 +39 очень
душно
1011.4 1005.8 +28.5
09 24.06 З 4 10 км 8/0
[Ac As]
+30.3 +23.1 65 +40 +42 очень
душно
1012.5 1006.9
15 24.06 З 3 10 км 4/0
[Ci sp]
+40.0 +26.8 48 +57 +69 опасность
перегрева
1009.4 1003.8
21 24.06 Ю 3 10 км ясно +36.2 +23.8 49 +47 +47 опасность
перегрева
1009.4 1003.8
00 25.06 ЮЗ 2 10 км ясно +33.2 +24.5 60 +46 +46 опасность
перегрева
1010.1 1004.5
03 25.06 ЮЗ 31 10 км 4/0
[Ac trans]
+31.1 +22.2 59 +40 +40 очень
душно
1009.9 1004.4
06 25.06 ЮЗ 4 10 км ясно +28.8 +22.9 70 +38 +38 очень
душно
1010.5 1004.9 +28.4
09 25.06 ЮЗ 5 10 км ясно +30.4 +22.6 63 +40 +43 очень
душно
1010.6 1005.1

 

Местоположение метеостанции Тамбакунда (Сенегал): широта 13.77 долгота -13.68 высота над уровнем моря 50 м.

В архиве по умолчанию представлена погода в Тамбакунде за последнюю неделю. Архивные данные за месяц целиком и за предыдущие месяцы, начиная с января 2011 года, Вы можете получить, выбрав интересующий диапазон дат из раскрывающегося списка и нажав кнопку "Ввод!".


*Определитесь, кто Вы:
робот инопланетянин человек

Внимание! Время в таблицах - всемирное. Для получения местного времени необходимо прибавить поправку, которая равна 0 ч.

Смотрите также архив погоды в соседних городах и на ближайших метеорологических станциях:

Погода в Фатото (Гамбия) (33 км)
Погода в Бассе (Гамбия) (85 км)
Погода в Джорджтауне (Гамбия) (121 км)
Погода в Кундаре (Гвинея) (135 км)
Погода в Колде (Сенегал) (170 км)
Погода в Кауере (Гамбия) (177 км)
Погода в Женое (Гамбия) (207 км)
Погода в Кедугу (Сенегал) (208 км)
Погода в Бафате (Гвинея-Биссау) (208 км)
Погода в Матаме (Сенегал) (214 км)

Пояснения к столбцам:

Ветер - указаны скорость ветра в м/с - средняя за 10 мин, порывы в срок и между сроками (в фигурных скобках) и направление, откуда дует ветер: С - северный, СВ - северо-восточный, В - восточный, ЮВ - юго-восточный, Ю - южный, ЮЗ - юго-западный, З - западный, СЗ - северо-западный.
Видимость - горизонтальная дальность видимости в метрах или километрах. При видимости от 1 до 10 км при отсутствии осадков обычно наблюдается дымка, при ухудшении видимости до 1 км и менее - туман. В сухую погоду видимость может ухудшаться дымом, пылью или мглою.
Явления - указаны атмосферные явления, наблюдавшиеся в срок или в последний час перед сроком; фигурными скобками обозначены явления, наблюдавшиеся между сроками (за 1-3 часа до срока); квадратными скобками обозначены град или гололедные отложения с указанием их диаметра в мм.
Облачность - указаны через наклонную черту общая и нижняя облачность в баллах и высота нижней границы облаков в метрах; квадратными скобками обозначены формы облаков: Ci - перистые, Cs - перисто-слоистые, Cc - перисто-кучевые, Ac - высококучевые, As - высокослоистые, Sc - слоисто-кучевые, Ns - слоисто-дождевые, Cu - кучевые, Cb - кучево-дождевые. Подробнее классификацию облаков см. в Атласе облаков (PDF).
T - Температура воздуха - температура, измеренная на высоте 2 м над землей.
Td - Температура точки росы - температура, при понижении до которой содержащийся в воздухе водяной пар достигнет насыщения.
f - Относительная влажность воздуха - влажноcть воздуха, измеренная на высоте 2 м над землей.
Te - Эффективная температура - температура, которую ощущает одетый по сезону человек в тени. Характеристика душности погоды. При расчете учитывается влияние влажности воздуха и скорости ветра на теплоощущения человека.
Tes - Эффективная температура на солнце - температура, которую ощущает человек, с поправкой на солнечный нагрев. Характеристика знойности погоды. Зависит от высоты солнца над горизонтом, облачности и скорости ветра. Ночью, в пасмурную погоду, а также при ветре 12 м/с и более поправка равна нулю.
P - Атмосферное давление - приведенное к уровню моря атмосферное давление.
Po - Атмосферное давление - измеренное на уровне метеостанции атмосферное давление.
Tmin - Минимальная температура - минимум температуры воздуха на высоте 2 м над землей.
Tmax - Максимальная температура - максимум температуры воздуха на высоте 2 м над землей.
R - Количество осадков - Количество выпавших осадков за период времени, мм. При наведении курсора мыши на число - период времени, за который выпало указанное количество осадков.
R24 - Количество осадков - Количество выпавших осадков за 24 часа, мм.
S - Снежный покров - Высота снежного покрова, см. При наведении курсора мыши на число - состояние снежного покрова и степень покрытия местности в баллах.